When you browse on this site, cookies collect data to enhance your experience and personalize the content and advertising you see.
Visit our Privacy Policy to learn more. By continuing to use the site, you agree to this use of cookies and data.
  • In Austria
  • List of Countries
  • For 7 days
  • Water Temperature
  • Weather Map
  • News
  • Weather Widgets
  • user-avatar
    Login

    Hourly Weather Rothenburg ob der Tauber

    Today, 13 November, Wednesday

    Time Temperature Precipitation Wind Pressure Humidity
    00:00 +2°C° 0 mm 2 mps 715 mmHg 93%
    01:00 +2°C° 0 mm 2 mps 715 mmHg 95%
    02:00 +3°C° 0 mm 1 mps 715 mmHg 95%
    03:00 +2°C° 0 mm 1 mps 714 mmHg 95%
    04:00 +2°C° 0 mm 1 mps 714 mmHg 95%
    05:00 +2°C° 0 mm 1 mps 714 mmHg 95%
    06:00 +2°C° 0 mm 1 mps 714 mmHg 95%
    07:00 +2°C° 0 mm 1 mps 714 mmHg 95%
    08:00 +2°C° 0 mm 2 mps 714 mmHg 92%
    09:00 +2°C° 0 mm 2 mps 714 mmHg 90%
    10:00 +3°C° 0 mm 2 mps 715 mmHg 87%
    11:00 +2°C° 0 mm 3 mps 715 mmHg 84%
    12:00 +3°C° 0 mm 3 mps 715 mmHg 81%
    13:00 +3°C° 0 mm 3 mps 715 mmHg 79%
    14:00 +3°C° 0 mm 3 mps 715 mmHg 80%
    15:00 +4°C° 0 mm 2 mps 715 mmHg 81%
    16:00 +4°C° 0 mm 2 mps 715 mmHg 82%
    17:00 +3°C° 0 mm 2 mps 715 mmHg 85%
    18:00 +3°C° 0 mm 2 mps 715 mmHg 89%
    19:00 +2°C° 0 mm 2 mps 715 mmHg 92%
    20:00 +2°C° 0 mm 2 mps 715 mmHg 92%
    21:00 +2°C° 0 mm 2 mps 715 mmHg 93%
    22:00 +2°C° 0 mm 2 mps 715 mmHg 93%
    23:00 +1°C° 0 mm 2 mps 715 mmHg 92%

    Tomorrow, 14 November, Thursday

    Time Temperature Precipitation Wind Pressure Humidity
    00:00 +1°C° 0 mm 2 mps 715 mmHg 92%
    01:00 +1°C° 0 mm 1 mps 715 mmHg 92%
    02:00 -1°C° 0 mm 2 mps 714 mmHg 92%
    03:00 -1°C° 0 mm 2 mps 714 mmHg 91%
    04:00 -2°C° 0 mm 2 mps 714 mmHg 91%
    05:00 -2°C° 0 mm 3 mps 714 mmHg 90%
    06:00 -2°C° 0 mm 3 mps 714 mmHg 89%
    07:00 -2°C° 0 mm 3 mps 713 mmHg 88%
    08:00 -2°C° 0 mm 4 mps 714 mmHg 84%
    09:00 -1°C° 0 mm 4 mps 714 mmHg 79%
    10:00 0°C° 0 mm 4 mps 714 mmHg 75%
    11:00 +1°C° 0 mm 4 mps 714 mmHg 73%
    12:00 +4°C° 0 mm 4 mps 714 mmHg 70%
    13:00 +5°C° 0 mm 4 mps 714 mmHg 68%
    14:00 +4°C° 0 mm 4 mps 714 mmHg 72%
    15:00 +4°C° 0 mm 4 mps 713 mmHg 75%
    16:00 +3°C° 0 mm 4 mps 713 mmHg 78%
    17:00 +2°C° 0 mm 3 mps 713 mmHg 82%
    18:00 +1°C° 0 mm 3 mps 713 mmHg 86%
    19:00 0°C° 0 mm 3 mps 713 mmHg 90%
    20:00 0°C° 0 mm 3 mps 712 mmHg 90%
    21:00 0°C° 0 mm 3 mps 712 mmHg 90%
    22:00 -1°C° 0 mm 4 mps 712 mmHg 90%
    23:00 -1°C° 0 mm 4 mps 712 mmHg 91%

    Day after tomorrow, 15 November, Friday

    Time Temperature Precipitation Wind Pressure Humidity
    00:00 0°C° 0 mm 3 mps 711 mmHg 91%
    01:00 -1°C° 0 mm 3 mps 711 mmHg 91%
    02:00 -1°C° 0 mm 3 mps 711 mmHg 92%
    03:00 -1°C° 0 mm 3 mps 710 mmHg 93%
    04:00 -1°C° 0 mm 2 mps 709 mmHg 93%
    05:00 -1°C° 0 mm 2 mps 710 mmHg 93%
    06:00 +1°C° 0 mm 1 mps 710 mmHg 93%
    07:00 +1°C° 0 mm 1 mps 710 mmHg 93%
    08:00 +1°C° 0 mm 2 mps 711 mmHg 90%
    09:00 +2°C° 0 mm 2 mps 712 mmHg 87%
    10:00 +2°C° 0 mm 3 mps 712 mmHg 83%
    11:00 +2°C° 0 mm 3 mps 713 mmHg 81%
    12:00 +1°C° 0 mm 4 mps 713 mmHg 80%
    13:00 +3°C° 0 mm 4 mps 714 mmHg 78%
    14:00 +2°C° 0 mm 3 mps 714 mmHg 80%
    15:00 +2°C° 0 mm 3 mps 714 mmHg 81%
    16:00 +2°C° 0 mm 3 mps 714 mmHg 83%
    17:00 +3°C° 0 mm 2 mps 715 mmHg 85%
    18:00 +2°C° 0 mm 2 mps 715 mmHg 87%
    19:00 +3°C° 0 mm 1 mps 716 mmHg 89%
    20:00 +3°C° 0.2 mm 1 mps 716 mmHg 90%
    21:00 +2°C° 0.2 mm 2 mps 716 mmHg 91%
    22:00 +2°C° 0.2 mm 2 mps 716 mmHg 92%
    23:00 +2°C° 0.1 mm 1 mps 717 mmHg 92%

    16 November, Saturday

    Time Temperature Precipitation Wind Pressure Humidity
    00:00 +2°C° 0.1 mm 1 mps 717 mmHg 93%
    01:00 +2°C° 0.1 mm 1 mps 717 mmHg 93%
    02:00 +2°C° 0 mm 1 mps 717 mmHg 94%
    03:00 +2°C° 0 mm 1 mps 718 mmHg 95%
    04:00 +2°C° 0 mm 1 mps 718 mmHg 96%
    05:00 +2°C° 0 mm 1 mps 718 mmHg 96%
    06:00 +1°C° 0 mm 2 mps 719 mmHg 96%
    07:00 +1°C° 0 mm 2 mps 719 mmHg 96%
    08:00 +2°C° 0 mm 2 mps 719 mmHg 92%
    09:00 +2°C° 0 mm 2 mps 720 mmHg 89%
    10:00 +2°C° 0 mm 3 mps 720 mmHg 86%
    11:00 +3°C° 0 mm 3 mps 720 mmHg 84%
    12:00 +4°C° 0 mm 3 mps 721 mmHg 82%
    13:00 +5°C° 0 mm 3 mps 721 mmHg 80%
    14:00 +5°C° 0 mm 3 mps 721 mmHg 83%
    15:00 +4°C° 0 mm 3 mps 721 mmHg 86%
    16:00 +5°C° 0 mm 2 mps 721 mmHg 89%
    17:00 +4°C° 0 mm 2 mps 721 mmHg 90%
    18:00 +3°C° 0 mm 2 mps 721 mmHg 92%
    19:00 +4°C° 0 mm 1 mps 721 mmHg 93%
    20:00 +3°C° 0 mm 1 mps 721 mmHg 93%
    21:00 +3°C° 0 mm 1 mps 721 mmHg 93%
    22:00 +3°C° 0 mm 1 mps 721 mmHg 94%
    23:00 +3°C° 0 mm 1 mps 721 mmHg 94%

    17 November, Sunday

    Time Temperature Precipitation Wind Pressure Humidity
    00:00 +3°C° 0 mm 1 mps 720 mmHg 94%
    01:00 +3°C° 0 mm 1 mps 720 mmHg 94%
    02:00 +3°C° 0 mm 1 mps 719 mmHg 94%
    03:00 +2°C° 0 mm 1 mps 719 mmHg 95%
    04:00 +2°C° 0 mm 1 mps 718 mmHg 95%
    05:00 +2°C° 0 mm 1 mps 718 mmHg 95%
    06:00 +3°C° 0 mm 1 mps 718 mmHg 94%
    07:00 +3°C° 0 mm 1 mps 718 mmHg 94%
    08:00 +3°C° 0 mm 1 mps 718 mmHg 92%
    09:00 +4°C° 0 mm 1 mps 718 mmHg 90%
    10:00 +4°C° 0 mm 1 mps 718 mmHg 88%
    11:00 +5°C° 0 mm 1 mps 718 mmHg 85%
    12:00 +6°C° 0 mm 1 mps 718 mmHg 83%
    13:00 +6°C° 0 mm 1 mps 718 mmHg 80%
    14:00 +6°C° 0 mm 1 mps 717 mmHg 82%
    15:00 +5°C° 0 mm 1 mps 717 mmHg 85%
    16:00 +5°C° 0 mm 1 mps 716 mmHg 87%
    17:00 +5°C° 0 mm 1 mps 716 mmHg 89%
    18:00 +4°C° 0 mm 1 mps 716 mmHg 90%
    19:00 +4°C° 0 mm 1 mps 715 mmHg 92%
    20:00 +4°C° 0.2 mm 1 mps 715 mmHg 92%
    21:00 +3°C° 0.2 mm 2 mps 715 mmHg 93%
    22:00 +3°C° 0.2 mm 2 mps 715 mmHg 93%
    23:00 +3°C° 0.2 mm 2 mps 715 mmHg 94%

    18 November, Monday

    Time Temperature Precipitation Wind Pressure Humidity
    00:00 +3°C° 0.2 mm 2 mps 714 mmHg 95%
    01:00 +3°C° 0.2 mm 2 mps 714 mmHg 96%
    02:00 +3°C° 0 mm 2 mps 714 mmHg 96%
    03:00 +3°C° 0 mm 2 mps 714 mmHg 96%
    04:00 +2°C° 0 mm 3 mps 714 mmHg 96%
    05:00 +2°C° 0 mm 3 mps 715 mmHg 96%
    06:00 +2°C° 0 mm 3 mps 715 mmHg 96%
    07:00 +2°C° 0 mm 3 mps 716 mmHg 96%
    08:00 +3°C° 0 mm 3 mps 716 mmHg 95%
    09:00 +3°C° 0 mm 3 mps 717 mmHg 94%
    10:00 +3°C° 0 mm 4 mps 717 mmHg 93%
    11:00 +3°C° 0 mm 3 mps 718 mmHg 91%
    12:00 +4°C° 0 mm 3 mps 718 mmHg 89%
    13:00 +4°C° 0 mm 3 mps 718 mmHg 87%
    14:00 +4°C° 0 mm 3 mps 718 mmHg 88%
    15:00 +4°C° 0 mm 3 mps 719 mmHg 88%
    16:00 +4°C° 0 mm 3 mps 719 mmHg 88%
    17:00 +4°C° 0 mm 2 mps 719 mmHg 89%
    18:00 +4°C° 0 mm 2 mps 720 mmHg 90%
    19:00 +5°C° 0 mm 1 mps 720 mmHg 90%
    20:00 +5°C° 0 mm 1 mps 720 mmHg 90%
    21:00 +5°C° 0 mm 1 mps 720 mmHg 90%
    22:00 +3°C° 0 mm 0 mps 721 mmHg 90%
    23:00 +3°C° 0 mm 0 mps 721 mmHg 90%
    Show more